• In Germany
  • List of Countries
  • For 7 days
  • Water Temperature
  • Satellite Maps
  • Weather Map
  • Weather Widgets
  • user-avatar
    Login

    Hourly Weather Stepanakert

    Today, 24 November, Friday

    Time Temperature Precipitation Wind Pressure Humidity
    00:00 +2°C° 0 mm 2 mps 691 mmHg 67%
    01:00 +2°C° 0 mm 2 mps 691 mmHg 68%
    02:00 +1°C° 0 mm 2 mps 691 mmHg 69%
    03:00 +2°C° 0 mm 1 mps 691 mmHg 70%
    04:00 +2°C° 0 mm 1 mps 691 mmHg 71%
    05:00 +1°C° 0 mm 1 mps 691 mmHg 71%
    06:00 +1°C° 0 mm 1 mps 691 mmHg 71%
    07:00 +2°C° 0 mm 1 mps 692 mmHg 67%
    08:00 +2°C° 0 mm 2 mps 692 mmHg 62%
    09:00 +3°C° 0 mm 2 mps 692 mmHg 56%
    10:00 +3°C° 0.1 mm 2 mps 692 mmHg 54%
    11:00 +3°C° 0.1 mm 2 mps 692 mmHg 52%
    12:00 +3°C° 0.1 mm 2 mps 692 mmHg 51%
    13:00 +3°C° 0.1 mm 2 mps 692 mmHg 50%
    14:00 +3°C° 0.1 mm 2 mps 692 mmHg 50%
    15:00 +3°C° 0.1 mm 2 mps 692 mmHg 50%
    16:00 +2°C° 0 mm 2 mps 693 mmHg 53%
    17:00 +2°C° 0 mm 1 mps 693 mmHg 57%
    18:00 +1°C° 0 mm 1 mps 693 mmHg 61%
    19:00 +1°C° 0 mm 1 mps 694 mmHg 60%
    20:00 +1°C° 0 mm 1 mps 694 mmHg 59%
    21:00 -1°C° 0 mm 2 mps 694 mmHg 57%
    22:00 -1°C° 0 mm 2 mps 694 mmHg 55%
    23:00 -1°C° 0 mm 2 mps 694 mmHg 53%

    Tomorrow, 25 November, Saturday

    Time Temperature Precipitation Wind Pressure Humidity
    00:00 -2°C° 0 mm 2 mps 694 mmHg 50%
    01:00 -2°C° 0 mm 2 mps 694 mmHg 50%
    02:00 -2°C° 0 mm 2 mps 694 mmHg 49%
    03:00 -2°C° 0 mm 2 mps 695 mmHg 49%
    04:00 -2°C° 0 mm 2 mps 695 mmHg 49%
    05:00 -2°C° 0 mm 2 mps 695 mmHg 49%
    06:00 -2°C° 0 mm 2 mps 696 mmHg 49%
    07:00 -1°C° 0 mm 2 mps 696 mmHg 46%
    08:00 +1°C° 0 mm 2 mps 697 mmHg 43%
    09:00 +3°C° 0 mm 2 mps 698 mmHg 39%
    10:00 +3°C° 0 mm 2 mps 698 mmHg 38%
    11:00 +4°C° 0 mm 2 mps 698 mmHg 36%
    12:00 +4°C° 0 mm 3 mps 698 mmHg 34%
    13:00 +4°C° 0 mm 3 mps 698 mmHg 35%
    14:00 +5°C° 0 mm 2 mps 699 mmHg 36%
    15:00 +5°C° 0 mm 2 mps 699 mmHg 36%
    16:00 +4°C° 0 mm 2 mps 699 mmHg 41%
    17:00 +3°C° 0 mm 1 mps 699 mmHg 46%
    18:00 +2°C° 0 mm 1 mps 700 mmHg 51%
    19:00 +2°C° 0 mm 1 mps 700 mmHg 51%
    20:00 +2°C° 0 mm 1 mps 700 mmHg 51%
    21:00 -1°C° 0 mm 2 mps 700 mmHg 51%
    22:00 +1°C° 0 mm 1 mps 700 mmHg 50%
    23:00 +1°C° 0 mm 1 mps 700 mmHg 49%

    Day after tomorrow, 26 November, Sunday

    Time Temperature Precipitation Wind Pressure Humidity
    00:00 +1°C° 0 mm 1 mps 700 mmHg 48%
    01:00 +1°C° 0 mm 1 mps 700 mmHg 48%
    02:00 +1°C° 0 mm 1 mps 700 mmHg 48%
    03:00 0°C° 0 mm 1 mps 700 mmHg 48%
    04:00 0°C° 0 mm 1 mps 699 mmHg 49%
    05:00 0°C° 0 mm 1 mps 699 mmHg 49%
    06:00 0°C° 0 mm 1 mps 699 mmHg 50%
    07:00 +1°C° 0 mm 1 mps 699 mmHg 47%
    08:00 +2°C° 0 mm 1 mps 699 mmHg 44%
    09:00 +4°C° 0 mm 1 mps 699 mmHg 41%
    10:00 +5°C° 0 mm 1 mps 699 mmHg 40%
    11:00 +5°C° 0 mm 2 mps 698 mmHg 39%
    12:00 +6°C° 0 mm 2 mps 698 mmHg 39%
    13:00 +5°C° 0 mm 2 mps 697 mmHg 40%
    14:00 +5°C° 0 mm 2 mps 697 mmHg 41%
    15:00 +5°C° 0 mm 2 mps 696 mmHg 42%
    16:00 +4°C° 0 mm 2 mps 696 mmHg 45%
    17:00 +4°C° 0 mm 1 mps 696 mmHg 49%
    18:00 +3°C° 0 mm 1 mps 696 mmHg 53%
    19:00 +3°C° 0 mm 1 mps 696 mmHg 52%
    20:00 +3°C° 0 mm 1 mps 696 mmHg 51%
    21:00 +3°C° 0 mm 1 mps 696 mmHg 50%
    22:00 +3°C° 0 mm 1 mps 696 mmHg 50%
    23:00 +3°C° 0 mm 1 mps 696 mmHg 49%

    27 November, Monday

    Time Temperature Precipitation Wind Pressure Humidity
    00:00 +2°C° 0 mm 2 mps 696 mmHg 49%
    01:00 +3°C° 0 mm 1 mps 695 mmHg 49%
    02:00 +2°C° 0 mm 1 mps 695 mmHg 49%
    03:00 +2°C° 0 mm 1 mps 695 mmHg 48%
    04:00 +2°C° 0 mm 1 mps 695 mmHg 48%
    05:00 +2°C° 0 mm 1 mps 695 mmHg 48%
    06:00 +2°C° 0 mm 1 mps 695 mmHg 48%
    07:00 +4°C° 0 mm 1 mps 695 mmHg 45%
    08:00 +5°C° 0 mm 1 mps 696 mmHg 42%
    09:00 +7°C° 0 mm 1 mps 696 mmHg 39%
    10:00 +8°C° 0 mm 1 mps 696 mmHg 37%
    11:00 +9°C° 0 mm 1 mps 695 mmHg 35%
    12:00 +9°C° 0 mm 2 mps 695 mmHg 33%
    13:00 +8°C° 0 mm 2 mps 694 mmHg 34%
    14:00 +8°C° 0 mm 2 mps 694 mmHg 35%
    15:00 +8°C° 0 mm 2 mps 694 mmHg 36%
    16:00 +8°C° 0 mm 1 mps 694 mmHg 40%
    17:00 +6°C° 0 mm 1 mps 694 mmHg 44%
    18:00 +5°C° 0 mm 1 mps 694 mmHg 48%
    19:00 +5°C° 0 mm 1 mps 694 mmHg 48%
    20:00 +4°C° 0 mm 1 mps 694 mmHg 47%
    21:00 +4°C° 0 mm 1 mps 695 mmHg 47%
    22:00 +4°C° 0 mm 1 mps 694 mmHg 48%
    23:00 +4°C° 0 mm 1 mps 694 mmHg 48%

    28 November, Tuesday

    Time Temperature Precipitation Wind Pressure Humidity
    00:00 +3°C° 0 mm 1 mps 694 mmHg 49%
    01:00 +3°C° 0 mm 1 mps 694 mmHg 50%
    02:00 +3°C° 0 mm 1 mps 694 mmHg 52%
    03:00 +3°C° 0 mm 1 mps 694 mmHg 53%
    04:00 +2°C° 0 mm 1 mps 694 mmHg 55%
    05:00 +2°C° 0 mm 1 mps 695 mmHg 56%
    06:00 +2°C° 0 mm 1 mps 695 mmHg 58%
    07:00 +3°C° 0 mm 1 mps 695 mmHg 56%
    08:00 +4°C° 0 mm 1 mps 695 mmHg 55%
    09:00 +5°C° 0 mm 1 mps 696 mmHg 54%
    10:00 +5°C° 0 mm 2 mps 696 mmHg 53%
    11:00 +6°C° 0 mm 2 mps 695 mmHg 53%
    12:00 +7°C° 0 mm 2 mps 695 mmHg 52%
    13:00 +7°C° 0 mm 2 mps 695 mmHg 54%
    14:00 +7°C° 0 mm 2 mps 695 mmHg 57%
    15:00 +7°C° 0 mm 2 mps 694 mmHg 59%
    16:00 +6°C° 0 mm 2 mps 694 mmHg 65%
    17:00 +5°C° 0 mm 1 mps 695 mmHg 70%
    18:00 +4°C° 0 mm 1 mps 695 mmHg 76%
    19:00 +4°C° 0 mm 1 mps 695 mmHg 75%
    20:00 +4°C° 0 mm 1 mps 695 mmHg 74%
    21:00 +4°C° 0 mm 1 mps 695 mmHg 73%
    22:00 +4°C° 0 mm 1 mps 695 mmHg 74%
    23:00 +4°C° 0 mm 1 mps 695 mmHg 74%

    29 November, Wednesday

    Time Temperature Precipitation Wind Pressure Humidity
    00:00 +4°C° 0 mm 1 mps 695 mmHg 74%
    01:00 +4°C° 0 mm 1 mps 695 mmHg 74%
    02:00 +4°C° 0 mm 1 mps 695 mmHg 74%
    03:00 +3°C° 0 mm 1 mps 695 mmHg 74%
    04:00 +3°C° 0 mm 1 mps 695 mmHg 74%
    05:00 +3°C° 0 mm 1 mps 695 mmHg 73%
    06:00 +3°C° 0 mm 1 mps 695 mmHg 73%
    07:00 +5°C° 0 mm 1 mps 695 mmHg 68%
    08:00 +6°C° 0 mm 1 mps 695 mmHg 64%
    09:00 +7°C° 0 mm 1 mps 696 mmHg 59%
    10:00 +9°C° 0 mm 1 mps 695 mmHg 55%
    11:00 +9°C° 0 mm 2 mps 695 mmHg 52%
    12:00 +10°C° 0 mm 2 mps 694 mmHg 49%
    13:00 +10°C° 0 mm 2 mps 694 mmHg 49%
    14:00 +10°C° 0 mm 2 mps 694 mmHg 50%
    15:00 +10°C° 0 mm 2 mps 694 mmHg 51%
    16:00 +9°C° 0 mm 1 mps 694 mmHg 55%
    17:00 +8°C° 0 mm 1 mps 694 mmHg 59%
    18:00 +7°C° 0 mm 1 mps 694 mmHg 63%
    19:00 +7°C° 0 mm 1 mps 694 mmHg 63%
    20:00 +7°C° 0 mm 1 mps 694 mmHg 62%
    21:00 +7°C° 0 mm 1 mps 693 mmHg 62%
    22:00 +6°C° 0 mm 1 mps 693 mmHg 62%
    23:00 +6°C° 0 mm 1 mps 693 mmHg 62%
    Show more